DELTA 1 DEB, 10710

Orbit data source: Space-Track

DELTA 1 DEB, 10710 is space debris in LEO originally from a launch on Thu, 29 Jul 1976 UTC launched from the Air Force Western Test Range (AFWTR). Debris objects in space refer to the collection of defunct objects orbiting the Earth. Examples of debris include non-operational satellites, rocket bodies, and fragments generated from explosions, collisions, or faulty payload assembly.

Loading next visibility...
Identifier
10710, 1976-077AF
Orbit
LEO
Country
Flag of USUS
Related business
Manufacturer
Unknown
Mission
Spacecraft
Bus & Motor
Unknown
Mass
Unknown
Launch date (UTC)
1976-07-29 (49 years ago)
Launch vehicle
Unknown
Launch site
Air Force Western Test Range (AFWTR)
Object type
Payload
Rocket body
Debris
Shape & HBR
Unknown
Radar Cross Section
Small (<0.1 m²)

Expand to show TLE details & history
Last TLE update: 2 days ago

TLE from 2 days ago
0 DELTA 1 DEB
1 10710U 76077AF  25260.42558031  .00000463  00000-0  56847-2 0  9994
2 10710 101.7688  78.2205 0259673 167.3446 223.8995 11.99169654120089
Epoch: 2025-09-17T10:12Z
TLE epoch observation values (Epoch: 2025-09-17T10:12:50.138Z)
Latitude
28.5978°
Longitude
-78.08123°
Altitude
1,841.197 km
Speed
6.901 km/s
True Right ascension
04h 46m 55s
True Declination
28° 28' 21"
Sunlit
Object was in daylight at epoch
Visualization orbit readout
Latitude
Unknown
Longitude
Unknown
Altitude
Unknown
Speed
Unknown
Apparent Right ascension
Unknown
Apparent Declination
Unknown
Sunlit
N/A
Visualization observer readout
Local Sidereal Time
15:13:59
Azimuth
Unknown
Elevation
Unknown
Doppler factor
Unknown
Orbital elements
Apogee altitude
1,891.498 km
Perigee altitude
1,472.888 km
Semi-major axis
8,060.33 km
Eccentricity
0.02597
Inclination
101.7688°
RAAN
78.2205°
Arg. of periapsis
167.3446°
True anomaly
221.88382°
Mean anomaly
223.8995°
Eccentric anomaly
222.88696°
Mean motion
2.99926 °/min
Orbital period
120.03 mins
BSTAR
0.0056847
Loading maneuver chart data...
Computing Atmospheric mass density...
Loading historical data...
Loading historical data...
Loading historical data...
Loading historical data...
Loading historical data...
Loading historical data...
Loading historical data...

Documentation

Showing up to 5 results
|